Showing default

RESURS O1, 23342

Orbit data source: Space-Track

RESURS O1, 23342 is a payload satellite owned by Priroda (CIS) in SSO that was launched on Fri, 04 Nov 1994 UTC via a ZENIT-2 launch vehicle from the Tyuratam Missile And Space Complex (TTMTR). Payload-class satellites include a variety of spacecraft equipped with specific instruments for various scientific and technological missions. These include communications satellites like Starlink; space stations such as the ISS; scientific satellites like the Hubble; Earth observation satellites from companies like Planet Labs, Umbra, and HawkEye 360; GPS; miniature CubeSats for education and research; and military/defense satellites.

Loading next visibility...
Identifier
23342, 1994-074A
Orbit
SSO
Country
Flag of CISCIS
Related business
Manufacturer
VNIIEM
Mission
Civil Imaging
Bus & Motor
RESURS-O, Unknown motor
Mass
1,900 kg wet, 1,900 kg dry
Launch date (UTC)
1994-11-04 (32 years ago)
Launch vehicle
ZENIT-2
Launch site
Tyuratam Missile And Space Complex (TTMTR)
Object type
Payload
Rocket body
Debris
Shape & HBR
Cyl + 2 Pan, 5.8 m
Radar Cross Section
11.656 m², Large (>1 m²)

Expand to show TLE details & history
Last TLE update: 6 hours ago

TLE from 6 hours ago
0 RESURS O1
1 23342U 94074A   26257.28278089  .00000437  00000-0  56956-4 0  9993
2 23342  97.6622 272.4085 0001986 105.4597 254.6838 14.85176900717159
Epoch: 2026-09-14T06:47Z
TLE epoch observation values (Epoch: 2026-09-14T06:47:12.268Z)
Latitude
-0.00004°
Longitude
177.34208°
Altitude
616.433 km
Speed
7.551 km/s
True Right ascension
18h 09m 38s
True Declination
0° 00' 00"
Sunlit
Object was in daylight at epoch
Visualization orbit readout
Latitude
Unknown
Longitude
Unknown
Altitude
Unknown
Speed
Unknown
Apparent Right ascension
Unknown
Apparent Declination
Unknown
Sunlit
N/A
Visualization observer readout
Local Sidereal Time
04:51:48
Azimuth
Unknown
Elevation
Unknown
Doppler factor
Unknown
Orbital elements
Apogee altitude
611.442 km
Perigee altitude
608.666 km
Semi-major axis
6,988.191 km
Eccentricity
0.0002
Inclination
97.6622°
RAAN
272.4085°
Arg. of periapsis
105.4597°
True anomaly
254.66185°
Mean anomaly
254.6838°
Eccentric anomaly
254.67283°
Mean motion
3.71532 °/min
Orbital period
96.9 mins
BSTAR
0.000056956
Loading maneuver chart data...
Computing Atmospheric mass density...

Documentation

Showing up to 5 results
|